HORIZONS-2

Last updated on Sat Aug 15 2026 00:02:57 GMT+0000 (Coordinated Universal Time)

1 32388U 07063B 26226.55332267 -.00000269 00000+0 00000+0 0 9997 2 32388 2.7480 79.8811 0002531 39.5235 328.9721 1.00272580 68404
UTC large
Height (km)
Speed (km/s)
/
Latitude / Longitude
Inclination (degrees)
Orbital Period (minutes)
Azimuth
Elevation
Range (km)
Doppler Factor

Next 0 passes for location: London (51.5072 / 0.1276)

No passes found over London.
HORIZONS-2